#timestamp,LO_Frequency,Hit,StdDev 
1646661615.9,286047002.2,N
1646661635.7,286047000.2,N
1646661655.6,286047002.7,N
1646661675.4,286047002.8,N
1646661695.3,286047000.5,N
1646661715.1,286046999.9,N
1646661716.0,286046999.9,N
1646661735.8,286046999.0,N
1646661755.7,286046999.5,N
1646661775.5,286046998.0,N
1646661795.3,286046996.7,N
1646661815.2,286046998.1,N
1646661835.0,286046999.4,N
1646661835.9,286046999.4,N
1646661855.8,286047001.1,N
1646661875.6,286047000.7,N
1646661895.4,286047001.2,N
1646661915.3,286046998.5,N
1646661935.1,286047001.1,N
1646661955.8,286046998.6,N
1646661975.7,286047000.4,N
1646661995.5,286046998.6,N
1646662015.4,286046998.8,N
1646662035.2,286046999.4,N
1646662055.0,286046998.7,N
1646662055.9,286046998.7,N
1646662075.8,286046998.2,N
1646662095.6,286047000.3,N
1646662115.4,286046998.6,N
1646662135.3,286046998.2,N
1646662155.1,286046998.4,N
1646662175.9,286046998.1,N
1646662195.7,286047000.2,N
1646662215.5,286047000.2,N
1646662235.4,286047000.6,N
1646662255.2,286046999.9,N
1646662275.1,286046999.9,N
1646662276.0,286046999.9,N
1646662295.8,286046999.9,N
1646662315.6,286047000.2,N
1646662335.5,286047000.0,N
1646662355.3,286047002.4,N
1646662375.1,286047002.5,N
1646662395.9,286047001.3,N
1646662415.7,286047002.1,N
1646662435.6,286047002.8,N
1646662455.4,286047002.8,N
1646662475.2,286046999.8,N
1646662495.1,286047002.8,N
1646662496.0,286047002.8,N
1646662515.8,286047000.6,N
1646662535.6,286047000.8,N
1646662555.5,286047000.6,N
1646662575.3,286046998.8,N
1646662595.2,286046996.9,N
1646662615.9,286046999.5,N
1646662635.7,286046998.8,N
1646662655.6,286047001.2,N
1646662675.4,286046998.5,N
1646662695.3,286046996.5,N
1646662715.1,286046997.9,N
1646662716.0,286046997.9,N
1646662735.8,286046995.3,N
1646662755.7,286046995.4,N
1646662775.5,286046997.1,N
1646662795.3,286046997.1,N
1646662815.2,286046997.9,N
1646662835.0,286046994.9,N
1646662855.3,286046996.2,N
1646662875.1,286046995.7,N
1646662895.9,286046995.0,N
1646662915.7,286046995.6,N
1646662935.6,286046995.2,N
1646662955.4,286046993.3,N
1646662975.2,286046993.7,N
1646662995.1,286046993.7,N
1646662996.0,286046993.7,N
1646663015.8,286046996.2,N
1646663035.6,286046994.2,N
1646663055.5,286046994.6,N
1646663075.3,286046994.8,N
1646663095.2,286046992.9,Y
1646663115.9,286046995.0,P
1646663135.7,286046995.2,P
1646663155.6,286046997.4,P
1646663175.4,286046997.4,N
1646663195.3,286046996.7,Y
1646663215.1,286047002.4,P
1646663216.0,286047002.4,N
1646663235.8,286047000.8,N
1646663255.7,286047002.6,N
1646663275.5,286046999.9,N
1646663295.3,286047000.6,N
1646663315.2,286047001.0,N
1646663335.0,286047002.2,N
1646663335.9,286047002.2,N
1646663355.8,286046999.9,N
1646663375.6,286047000.4,N
1646663395.4,286047000.2,N
1646663415.3,286047002.2,N
1646663435.1,286047002.8,N
1646663455.9,286047000.5,N
1646663475.7,286047001.2,N
1646663495.5,286047000.3,N
1646663515.4,286046999.9,N
1646663535.2,286046999.9,N
1646663555.0,286046999.8,N
1646663555.9,286046999.8,N
1646663575.8,286047002.6,N
1646663595.6,286047001.9,N
1646663615.5,286047002.7,N
1646663635.3,286047002.0,N
1646663655.1,286047002.4,N
1646663675.9,286047001.1,N
1646663695.7,286046998.5,N
1646663715.5,286047001.0,N
1646663735.4,286046999.9,N
1646663755.2,286047000.1,N
1646663775.1,286047000.1,N
1646663776.0,286047000.1,N
1646663795.8,286047000.3,N
1646663815.6,286047002.3,N
1646663835.5,286046999.9,N
1646663855.3,286046999.9,N
1646663875.1,286046999.7,N
1646663895.9,286047001.0,N
1646663915.7,286047000.6,N
1646663935.6,286047000.4,N
1646663955.4,286047000.8,N
1646663975.2,286046998.7,N
1646663995.1,286047000.4,N
1646663996.0,286047000.4,N
1646664015.8,286047000.3,N
1646664035.6,286046999.8,N
1646664055.5,286046999.8,N
1646664075.3,286047002.7,N
1646664095.2,286047002.0,N
1646664115.9,286046999.9,N
1646664135.7,286047000.8,N
1646664155.6,286047000.8,N
1646664175.4,286047000.0,N
1646664195.2,286047000.2,N
1646664215.1,286047000.5,N
1646664216.0,286047000.5,N
1646664235.8,286047000.5,N
1646664255.7,286046998.2,N
1646664275.5,286047001.1,N
1646664295.3,286047001.1,N
1646664315.2,286047001.1,N
1646664335.0,286046998.9,N
1646664335.9,286046998.9,N
1646664355.8,286046999.1,N
1646664375.6,286046996.6,Y
1646664395.4,286046996.6,P
1646664415.3,286046996.5,N
1646664435.1,286046999.2,N
1646664455.8,286046997.7,N
1646664475.7,286046997.1,N
1646664495.5,286046997.8,N
1646664515.4,286046997.2,N
1646664535.2,286046997.9,N
1646664555.0,286046994.9,Y
1646664555.9,286046994.9,P
1646664575.8,286046996.6,N
1646664595.6,286046999.5,N
1646664615.4,286046999.0,N
1646664635.3,286046999.0,N
1646664655.1,286047000.5,N
1646664675.9,286047001.0,N
1646664695.7,286046998.3,N
1646664715.5,286046998.8,N
1646664735.4,286046997.9,N
1646664755.2,286046996.6,N
1646664775.1,286046999.2,N
1646664776.0,286046999.2,N
1646664795.8,286046998.1,N
1646664815.6,286046998.5,N
1646664835.5,286046999.6,N
1646664855.3,286046999.3,N
1646664875.1,286046998.8,N
1646664895.9,286046998.8,N
1646664915.7,286047000.8,N
1646664935.6,286046998.5,N
1646664955.4,286047000.5,N
1646664975.2,286047000.0,N
1646664995.1,286047001.2,N
1646664996.0,286047001.2,N
1646665015.8,286046998.1,N
1646665035.6,286047001.0,N
1646665055.5,286046998.1,N
1646665075.3,286047000.6,N
1646665095.2,286047000.9,N
1646665115.9,286047000.3,N
1646665135.7,286047001.0,N
1646665155.6,286046998.9,N
1646665175.4,286046999.3,N
1646665195.2,286046999.4,N
